{"data":{"norad_id":53541,"epoch":"2026-05-25T02:12:10.745856Z","epoch_age_seconds":57203,"freshness":"FRESH","line1":"1 53541U 22101Q   26145.09179104  .00000233  00000+0  32732-4 0  9991","line2":"2 53541  53.2133  91.1343 0001683  55.2000 304.9150 15.08837046208394","mean_motion":15.08837046,"eccentricity":0.0001683,"inclination_deg":53.2133,"raan_deg":91.1343,"arg_perigee_deg":55.2,"mean_anomaly_deg":304.915,"bstar":3.2732e-5,"rev_number":20839,"period_min":95.437741525336,"perigee_km":538.58813738599,"apogee_km":540.91669896415,"semimajor_km":6917.8894181751,"source":"CELESTRAK","updated_at":"2026-05-25T13:38:17.441945Z"}}